Tracking 20232 objects as of 21-Jan-2020
HD Live streaming from Space Station
objects crossing your sky now

COSMOS 2192

Track COSMOS 2192 now!
10-day predictions
COSMOS 2192 is classified as:


NORAD ID: 21981
Int'l Code: 1992-030F
Perigee: 1,478.2 km
Apogee: 1,493.1 km
Inclination: 74.0 °
Period: 115.5 minutes
Semi major axis: 7856 km
RCS: 0.6788 m2 (medium)
Launch date: June 3, 1992
Source: Commonwealth of Independent States (former USSR) (CIS)
Launch site: PLESETSK MISSILE AND SPACE COMPLEX (PKMTR)
aabbcc
Your satellite tracking list
Your tracking list is empty




NASA's NSSDC Master Catalog

Two Line Element Set (TLE):
1 21981U 92030F   20020.80718955 -.00000003  00000-0  89679-4 0  9999
2 21981  74.0007 243.8246 0009468 260.5017 173.0556 12.46653931257751
Source of the keplerian elements: AFSPC